Weather Refreshing every minute   No change Green  Reduced Blue  Increased Red  Changed Cyan
DescriptionDate Time (UTC/GMT)Temperature °CDew Point Temperature °CLiquid Freezing temperature °CMax Wind Direction °C Max Wind Speed m/sPrecipitation Total mmRain Intensity mm/hrRain On/OffRain State Relative Humidity %Surface StateSurface Temperature °CWater Layer mmWater Thickness mmWind Direction °D Wind Speed m/s
B1318 Great North Road 20/07/2022 11:10:00 20.4 13.8 0 0 2.5 0 0 Unavailable No Precipitation 65.8 Dry 26 0 0 355 1.3
B1318 20/07/2022 11:10:00 20.6 13.3 0 0 2.8 0 0 Unavailable No Precipitation 63 Dry 25.9 0 0 331 0.7
C304 Garesfield 20/07/2022 11:00:00 18.6 13.8 0 35 6.2 0 0 Rain detector off No Precipitation 74 Dry 25.8 0 0 14 3.5
A1231 Wessington Way 20/07/2022 11:00:00 21.3 14.7 0 215 5.1 0 0 Rain detector off No Precipitation 66 Dry 32 0 0 41 1.9
Burdon Lane 31/03/2022 22:40:00 1.1 -1.3 -2 0 4.7 0 0 Unavailable Unavailable 84 Trace of Chemical -0.8 0 0 4 4.3
A690 Houghton Cut 20/07/2022 11:00:00 21.5 15.4 0 109 5.7 0 0 Rain detector off No Precipitation 68 Dry 32.5 0 0 336 1.9
A1018 Sunderland Road 20/07/2022 11:10:00 20 14.2 0 109 8 0 0 Rain detector off No Precipitation 69 Dry 32.4 0 0 355 3.8
Hedworth Lane 10/09/2021 11:30:00 21 15 0 8 3 0.1 0 Rain detector off No Precipitation 68 Dry 26.4 0 0 289 1.4
A185 Hebburn 20/07/2022 11:10:00 20.4 14.2 0 90 5.5 0 0 Rain detector off No Precipitation 68 Unavailable 0 0 0 349 2.6
A1058 Formica 20/07/2022 11:10:00 20.6 14.9 0 72 4.4 0 0 Rain detector off No Precipitation 70 Dry 29.4 0 0 309 2.2
A1 Berwick-upon-Tweed 20/07/2022 11:00:00 18.1 13.6 -0.3 89 8.8 0 0 Rain detector off No Precipitation 75 Dry 31.2 0 0 47 5.7
A1 Haggerston 20/07/2022 11:00:00 18.3 14.4 -0.1 184 0 0 0 Rain detector off No Precipitation 78 Dry 28.1 0 0 95 0
A1 Felton 20/07/2022 11:00:00 19.3 14.2 0 198 4.7 0 0 Rain detector off No Precipitation 72 Dry 26.2 0 0 28 1.8
A1 Rosebrough 20/07/2022 11:00:00 17 13.6 0 134 8.5 0 0 Rain detector off No Precipitation 80 Dry 24.2 0 0 28 5.3
A1 Stannington 20/07/2022 10:50:00 20 13.9 0 147 4.7 0 0 Rain detector off No Precipitation 68 Dry 26.8 0 0 357 0.9
A697 Longframlington 03/11/2020 10:00:00 5.8 2.9 0 0 5.4 0 0 Rain detector off No Precipitation 82 Moist 7.3 0 0 241 4.7
A698 Norham / B6470 The Salutation 03/11/2020 09:40:00 5.9 2.5 -1.3 264 5.2 0 0 Rain detector off No Precipitation 79 Trace of Chemical 7.4 0 0 229 3.6
A189 Cramlington 03/11/2020 10:00:00 6.6 3 0 281 2.9 0 0 Rain detector off No Precipitation 78 Dry 6.9 0 0 208 1.5
A69 Mowden Hall 03/11/2020 10:00:00 6.6 3.2 0 34 4.7 0 0 Rain detector off No Precipitation 79 Dry 7.4 0 0 251 2.2
A696 Raechester 03/11/2020 10:00:00 4.5 2.9 0 0 7.2 0 0 Rain detector off No Precipitation 89 Moist 5.7 0 0 227 6.6
A1 Metrocentre 03/11/2020 09:50:00 7.1 3.3 -0.1 161 0.9 0 0 Rain detector off No Precipitation 77 Dry 8.2 0 0 58 0.2
A189 Redheugh Bridge 03/11/2020 10:00:00 0 0 0 210 3.5 0 0 Unavailable Unavailable 0 Unavailable 0 0 0 204 2.2
A68 Tow Law 03/11/2020 09:50:00 4.4 2.7 0 251 8.3 0 0 Rain detector off No Precipitation 89 Trace of Chemical 4.3 0 0 219 6.2
A689 Lanehead 03/11/2020 09:50:00 4 1.9 0 289 6.3 0 0 Rain detector off No Precipitation 86 Trace of Chemical 3.9 0 0 233 3.3
A194(M) Blackfell 25/03/2019 14:00:00 11.6 1.1 0 138 3.2 0 0 Rain detector off No Precipitation 48 Dry 0 0 0 31 1.3
Great Stainton 03/11/2020 09:50:00 6.1 3.2 0 257 3.1 0 0 Rain detector off No Precipitation 82 Moist 7.6 0 0 196 1.6
A6072 Redworth 03/11/2020 09:50:00 5.8 2.9 0 124 2.2 0 0 Rain detector off No Precipitation 82 Dry 6.4 0 0 79 1.1
A1 Coniscliffe 03/11/2020 09:40:00 7 2.8 0 261 3.6 0 0 Rain detector off No Precipitation 75 Dry 8.3 0 0 199 2.1
A19 Low Stotfold 03/11/2020 09:50:00 6.9 3.6 0 354 4 0 0 Rain detector off No Precipitation 80 Dry 9 0 0 174 2.4
A66 Elton 03/11/2020 09:50:00 6.9 3.8 0 267 2.6 0 0 Rain detector off No Precipitation 81 Dry 8.2 0 0 138 1
A181 Running Waters 03/11/2020 09:50:00 6.2 3.1 0 219 4.4 0 0 Rain detector off No Precipitation 80 Dry 6.9 0 0 185 2.9
B6277 Forest in Teesdale 03/11/2020 09:50:00 4.3 2.8 0 309 5 0 0 Rain detector off No Precipitation 90 Trace of Chemical 6.6 0 0 256 3.1
A66 North Bitts 03/11/2020 09:20:00 5.2 2.7 0 120 2.9 0 0 Rain detector off No Precipitation 84 Dry 5.6 0 0 30 1
B6309 Medomsley 03/11/2020 09:50:00 5 2.4 0 282 4.8 0 0 Rain detector off No Precipitation 83 Moist 4.6 0 0 244 3
A689 Bradbury 03/11/2020 09:50:00 6.3 3.5 0 210 4.9 0 0 Rain detector off No Precipitation 82 Dry 8 0 0 131 3.4
B1432 Hawthorn 03/11/2020 09:40:00 5.5 2.7 0 292 5.7 0 0 Rain detector off No Precipitation 82 Moist 5.9 0 0 264 3.6
B6302 Ushaw Moor 03/11/2020 09:50:00 5.6 2.3 0 205 2.5 0 0 Rain detector off No Precipitation 79 Dry 4.3 0 0 159 1.5
A689 Toronto 03/11/2020 09:50:00 5.6 2.7 0 203 3.6 0 0 Rain detector off No Precipitation 81 Dry 5.7 0 0 169 2.6
A66 Stainmore 25/03/2019 14:00:00 10.5 0.7 0 304 7.7 0 0 Unavailable Unavailable 59 Dry 0 0 0 250 5